[[{"header":{"parameterUnit":"m.s-1","parameterCategory":1,"la1":30.2991,"la2":30.254,"lo1":-89.0895,"lo2":-89.0444,"dy":0.0017,"dx":0.0017,"nx":28,"ny":28,"refTime":"2025-09-18T03:00:00:Z","depth":0,"parameterNumber":2,"parameterNumberName":"U-component_of_WINDS"},"data":[0,0,0,0,0,0,0,0,0,0,0,0,0,0,0,0,0,0,0,0,0,0,0,0,0,0,0,0,0,0,0,0,0,0,0,0,0,0,0,0,0,0,0,0,0,0,0,0,0,0,0,0,0,0,0,0,0,0,0.3607,0.3608,0,0.3705,0.3706,0.3707,0.3717,0.3716,0.3715,0.3714,0.3818,0.3821,0.3825,0,0,0,0,0,0,0,0,0,0,0,0,0,0.343,0.3433,0.3607,0.3608,0.3609,0.3705,0.3706,0.3708,0.3717,0.3716,0.3714,0.3713,0.3816,0.3821,0.3825,0,0,0,0,0,0,0,0,0,0,0,0,0,0.3515,0.3434,0.3606,0.3625,0.3628,0.3705,0.3706,0.3708,0.3717,0.3716,0.3714,0.3713,0.3815,0.382,0.3826,0.3892,0,0,0.3843,0.3846,0,0,0,0,0,0,0,0,0.351,0.3522,0.3621,0.3624,0.3627,0.3697,0.3682,0.377,0.3718,0.3683,0.3714,0.3712,0.3779,0.3788,0.381,0.3897,0.3901,0.3844,0.3847,0.3849,0.3851,0,0,0,0,0,0,0,0.3504,0.3518,0.3646,0.3623,0.3626,0.363,0.364,0.3699,0.3739,0.3686,0.3687,0.3699,0.378,0.3804,0.3812,0.3903,0.3843,0.3848,0.3852,0.3854,0.4049,0.4051,0,0,0,0,0,0,0.3495,0.3513,0.3643,0.3649,0.3564,0.3634,0.3646,0.3676,0.3738,0.3746,0.37,0.3699,0.3795,0.3805,0.3816,0.3897,0.3849,0.3855,0.3858,0.4047,0.405,0.4052,0,0,0,0,0,0,0.3491,0.3506,0.3639,0.3581,0.3598,0.3639,0.3673,0.3679,0.3703,0.3748,0.3756,0.3716,0.3794,0.3808,0.3873,0.39,0.3857,0.3862,0.4045,0.4048,0.4051,0.4059,0,0,0,0,0,0,0.3486,0.3505,0.3529,0.3581,0.3601,0.3693,0.3675,0.3682,0.3712,0.3711,0.3766,0.3774,0.3794,0.3864,0.3878,0.3907,0.3867,0.4043,0.4047,0.405,0.4057,0.4062,0.4066,0,0,0,0,0,0.3479,0.3529,0.353,0.3546,0.3633,0.3695,0.3706,0.3728,0.3714,0.374,0.3769,0.3772,0.3895,0.3871,0.3887,0.3918,0.4041,0.4045,0.4049,0.4054,0.4061,0.4066,0,0,0,0,0,0,0.348,0.3536,0.3538,0.3606,0.3645,0.3696,0.3729,0.3734,0.3779,0.3777,0.3803,0.3815,0.3879,0.3905,0.3877,0.3985,0.3967,0.3974,0.3965,0.3972,0.3977,0.3969,0.3871,0,0,0,0,0,0.3488,0.3532,0.3579,0.3634,0.3654,0.3688,0.3716,0.3729,0.3771,0.3788,0.3823,0.3864,0.3913,0.3944,0.3991,0.4061,0.4073,0.409,0.4095,0.4099,0.4105,0.4144,0.4152,0.4065,0.4065,0.4065,0,0,0.3505,0.3541,0.3567,0.3635,0.3667,0.3714,0.3702,0.3752,0.3787,0.3796,0.3859,0.3886,0.3934,0.4002,0.4033,0.4026,0.4131,0.4104,0.4107,0.4111,0.4149,0.4157,0.4164,0.4068,0.4067,0.4067,0,0,0.3559,0.3591,0.364,0.3672,0.372,0.3743,0.3754,0.3805,0.3822,0.3886,0.3894,0.3936,0.4019,0.4053,0.4081,0.4148,0.4152,0.4163,0.4188,0.4226,0.4233,0.4239,0.4262,0.4271,0.4169,0.4169,0.4169,0,0.3574,0.3643,0.3665,0.3714,0.3744,0.3754,0.3804,0.3835,0.3896,0.3917,0.3907,0.4011,0.4044,0.412,0.4136,0.4159,0.4173,0.4157,0.423,0.4236,0.4242,0.4265,0.4274,0.417,0.417,0.417,0.417,0,0.3659,0.3707,0.3742,0.3799,0.3833,0.3883,0.3913,0.3944,0.3955,0.3979,0.4043,0.4084,0.4139,0.4158,0.4169,0.4235,0.4229,0.4224,0.4206,0.4251,0.4273,0.4282,0.4171,0.4171,0.4171,0.417,0,0,0.3716,0.3785,0.3797,0.3824,0.3878,0.3916,0.3967,0.4019,0.4046,0.4088,0.4131,0.4201,0.4197,0.4229,0.4244,0.4277,0.4327,0.4269,0.427,0.4278,0.4402,0.4405,0.4415,0.4331,0.4332,0.4334,0.4398,0,0.3776,0.3865,0.3886,0.3962,0.4007,0.4017,0.4062,0.41,0.4124,0.4166,0.4193,0.4241,0.4232,0.4251,0.4285,0.4314,0.4353,0.431,0.4371,0.4373,0.4358,0.4426,0.4429,0.4488,0.4407,0.4408,0.4409,0,0.3858,0.3901,0.3981,0.4029,0.4049,0.4088,0.4138,0.4178,0.4222,0.4237,0.4273,0.4285,0.4338,0.4318,0.4393,0.4363,0.439,0.4408,0.4411,0.4417,0.4393,0.4434,0.4507,0.4515,0.4423,0.4422,0.4421,0,0.3891,0.3969,0.4027,0.405,0.4107,0.4134,0.416,0.4202,0.4233,0.4277,0.4297,0.4347,0.4375,0.4414,0.4439,0.4422,0.4512,0.4494,0.4526,0.4525,0.4544,0.4542,0.4622,0.4562,0.4562,0.4562,0.4561,0,0.3955,0.4004,0.4043,0.4078,0.4133,0.4158,0.4212,0.4238,0.4275,0.4317,0.433,0.4369,0.44,0.4444,0.4464,0.4522,0.4535,0.4549,0.4554,0.4547,0.4545,0.4565,0.4561,0.4564,0.4563,0.4563,0.4562,0,0.4001,0.4029,0.4093,0.4142,0.4156,0.4194,0.4236,0.4272,0.4296,0.4348,0.4362,0.44,0.4452,0.4481,0.4547,0.456,0.4625,0.4628,0.461,0.4612,0.4642,0.4638,0.4736,0.475,0.4681,0.4682,0.4683,0,0.404,0.4078,0.413,0.4159,0.4184,0.423,0.426,0.4286,0.4318,0.4371,0.44,0.4452,0.4495,0.4578,0.4612,0.4662,0.4666,0.4697,0.4674,0.4666,0.4666,0.4663,0.4667,0.47,0.4701,0.4702,0.4702,0,0.4106,0.4118,0.4161,0.4209,0.4245,0.4285,0.4324,0.4347,0.4379,0.4414,0.4467,0.45,0.4566,0.4618,0.4671,0.4698,0.4706,0.4709,0.4719,0.4713,0.47,0.4707,0.462,0.4707,0.4706,0.4706,0.4706,0.4705,0.4149,0.4183,0.4225,0.4273,0.4305,0.4341,0.4377,0.4405,0.4449,0.4504,0.4517,0.4572,0.4616,0.4687,0.4716,0.476,0.4755,0.4769,0.4773,0.4776,0.4776,0.4693,0.477,0.477,0.477,0.477,0.477,0,0.4215,0.4243,0.4286,0.434,0.4378,0.4381,0.4425,0.4457,0.4505,0.4544,0.4586,0.4646,0.4697,0.4735,0.4786,0.4814,0.4819,0.4827,0.4825,0.4831,0.4779,0.4765,0.4822,0.4822,0.4822,0.4822,0.4822,0.4822,0.4254,0.4311,0.4328,0.4401,0.4429,0.4482,0.4506,0.454,0.4572,0.4638,0.468,0.4704,0.4743,0.4797,0.4844,0.4854,0.4872,0.4879,0.489,0.484,0.4834,0.4829,0.4816,0.4883,0.4883,0.4938,0.4938,0.4939]},{"header":{"parameterUnit":"m.s-1","parameterCategory":1,"la1":30.2991,"la2":30.254,"lo1":-89.0895,"lo2":-89.0444,"dy":0.0017,"dx":0.0017,"nx":28,"ny":28,"refTime":"2025-09-18T03:00:00:Z","depth":0,"parameterNumber":3,"parameterNumberName":"V-component_of_WINDS"},"data":[0,0,0,0,0,0,0,0,0,0,0,0,0,0,0,0,0,0,0,0,0,0,0,0,0,0,0,0,0,0,0,0,0,0,0,0,0,0,0,0,0,0,0,0,0,0,0,0,0,0,0,0,0,0,0,0,0,0,0.3312,0.3312,0,0.3282,0.3282,0.3281,0.3237,0.3236,0.3236,0.3235,0.3203,0.3202,0.3202,0,0,0,0,0,0,0,0,0,0,0,0,0,0.3328,0.3328,0.3312,0.3312,0.3311,0.3282,0.3282,0.3281,0.3237,0.3236,0.3235,0.3235,0.3203,0.3203,0.3202,0,0,0,0,0,0,0,0,0,0,0,0,0,0.3312,0.3328,0.3312,0.3286,0.3283,0.3282,0.3282,0.3281,0.3237,0.3236,0.3235,0.3234,0.3203,0.3203,0.3202,0.3224,0,0,0.3202,0.3202,0,0,0,0,0,0,0,0,0.3313,0.3311,0.329,0.3288,0.3285,0.3262,0.3275,0.3262,0.3238,0.3255,0.3235,0.3234,0.3223,0.3221,0.3218,0.3222,0.3221,0.3202,0.3201,0.3201,0.3201,0,0,0,0,0,0,0,0.3314,0.3312,0.33,0.329,0.3287,0.3274,0.3271,0.3273,0.3246,0.3253,0.325,0.3247,0.3222,0.3218,0.3217,0.3221,0.3202,0.3201,0.3201,0.3201,0.3237,0.3238,0,0,0,0,0,0,0.3319,0.3313,0.3301,0.3299,0.3296,0.3275,0.3271,0.3271,0.3246,0.3241,0.3248,0.3245,0.3219,0.3217,0.3216,0.3236,0.3201,0.3201,0.3201,0.3236,0.3237,0.3238,0,0,0,0,0,0,0.332,0.3318,0.3302,0.3305,0.3302,0.3276,0.3276,0.3271,0.3267,0.3242,0.3237,0.325,0.3218,0.3216,0.3221,0.3235,0.3201,0.3201,0.3234,0.3236,0.3237,0.328,0,0,0,0,0,0,0.332,0.3319,0.3328,0.3306,0.3302,0.331,0.3277,0.3271,0.3267,0.3263,0.3242,0.3238,0.3217,0.3222,0.3221,0.3234,0.3201,0.3233,0.3235,0.3237,0.3277,0.3283,0.3287,0,0,0,0,0,0.3321,0.3342,0.3329,0.3327,0.3313,0.3311,0.3308,0.3285,0.3269,0.3276,0.3259,0.3238,0.3234,0.3223,0.3222,0.3234,0.3232,0.3234,0.3237,0.3275,0.3281,0.3287,0,0,0,0,0,0,0.3366,0.3338,0.3324,0.3338,0.3327,0.3303,0.3313,0.3294,0.3287,0.3283,0.3254,0.3249,0.3258,0.3247,0.3235,0.3252,0.3229,0.3232,0.3259,0.3265,0.327,0.3271,0.3201,0,0,0,0,0,0.3378,0.3379,0.3354,0.3369,0.3364,0.334,0.3338,0.332,0.3307,0.3302,0.3286,0.3274,0.3269,0.3267,0.3261,0.3275,0.3268,0.3283,0.3289,0.3293,0.3295,0.3298,0.3303,0.3246,0.3246,0.3246,0,0,0.3402,0.3387,0.3389,0.3378,0.3367,0.3367,0.3336,0.3338,0.3337,0.3303,0.3306,0.3293,0.3277,0.3286,0.3289,0.3277,0.3309,0.3296,0.33,0.3299,0.3301,0.3306,0.3311,0.3248,0.3247,0.3247,0,0,0.3445,0.3435,0.3445,0.3434,0.3418,0.3401,0.3404,0.3382,0.3372,0.3375,0.3348,0.3346,0.334,0.3328,0.3322,0.3357,0.3336,0.3357,0.3383,0.3386,0.3391,0.3394,0.3404,0.3408,0.3359,0.3359,0.3359,0,0.3477,0.3477,0.3452,0.3455,0.3449,0.3418,0.3425,0.3417,0.34,0.3396,0.3383,0.3371,0.3359,0.3363,0.3371,0.3368,0.3368,0.3358,0.3392,0.3396,0.3399,0.3408,0.3412,0.3361,0.3361,0.3361,0.336,0,0.3514,0.3515,0.3524,0.3508,0.3503,0.3509,0.3483,0.3482,0.3464,0.3448,0.3449,0.3433,0.3422,0.3422,0.3406,0.3422,0.3415,0.3398,0.3374,0.3407,0.3415,0.3418,0.3364,0.3364,0.3363,0.3362,0,0,0.3586,0.3554,0.3558,0.3548,0.3527,0.3526,0.3529,0.3518,0.3516,0.3505,0.3505,0.3499,0.3481,0.3474,0.3456,0.3459,0.3484,0.344,0.3439,0.3447,0.3498,0.351,0.3514,0.3471,0.3471,0.3472,0.3498,0,0.3623,0.3626,0.3603,0.3612,0.361,0.3579,0.3581,0.3567,0.3552,0.3546,0.3529,0.3524,0.3503,0.3498,0.35,0.3481,0.3494,0.3479,0.3468,0.3468,0.3471,0.3519,0.3532,0.3558,0.3502,0.3502,0.3502,0,0.3666,0.3656,0.3665,0.3641,0.3639,0.3642,0.3628,0.3624,0.3607,0.3595,0.3585,0.3564,0.3563,0.3542,0.3538,0.3529,0.3523,0.3512,0.3513,0.3509,0.3486,0.3514,0.3566,0.3569,0.3508,0.3507,0.3507,0,0.3713,0.3703,0.3705,0.3699,0.3671,0.3673,0.3662,0.3643,0.3637,0.3625,0.362,0.3609,0.3602,0.3592,0.3567,0.3554,0.3565,0.3543,0.3553,0.3554,0.3556,0.3555,0.3605,0.3556,0.3556,0.3556,0.3556,0,0.3755,0.3761,0.3726,0.3727,0.3732,0.3704,0.3709,0.3695,0.3678,0.3675,0.3648,0.3645,0.3613,0.3606,0.3587,0.3585,0.3583,0.3572,0.3566,0.3573,0.3574,0.3567,0.3564,0.3557,0.3556,0.3556,0.3556,0,0.3808,0.3785,0.3786,0.3759,0.3752,0.3757,0.3733,0.3732,0.3714,0.371,0.3708,0.3679,0.367,0.3644,0.3628,0.3614,0.3617,0.3608,0.3623,0.3619,0.363,0.3628,0.3675,0.3678,0.3629,0.363,0.363,0,0.3836,0.3839,0.3812,0.3808,0.3798,0.3792,0.3785,0.3757,0.3751,0.373,0.3731,0.3719,0.3708,0.3693,0.367,0.3657,0.3646,0.3663,0.3644,0.365,0.3643,0.3642,0.3641,0.3667,0.3668,0.3668,0.3669,0,0.3885,0.3873,0.3865,0.3852,0.3844,0.3833,0.3819,0.3817,0.3786,0.378,0.3769,0.3761,0.3743,0.373,0.3713,0.3699,0.3678,0.3675,0.3676,0.3682,0.3689,0.3683,0.3632,0.3674,0.3673,0.3673,0.3673,0.3672,0.3924,0.3925,0.3905,0.3896,0.3883,0.387,0.3867,0.3849,0.384,0.3823,0.3807,0.3798,0.3777,0.3752,0.3739,0.373,0.372,0.3722,0.3722,0.3723,0.3725,0.3693,0.3727,0.3727,0.3727,0.3727,0.3727,0,0.397,0.3956,0.3947,0.3929,0.3921,0.3902,0.3886,0.388,0.3872,0.3855,0.3844,0.3831,0.3818,0.3793,0.3778,0.3775,0.3764,0.3771,0.377,0.3767,0.3737,0.3736,0.378,0.378,0.378,0.378,0.378,0.378,0.3993,0.3992,0.3977,0.3968,0.3953,0.3943,0.3935,0.3923,0.3909,0.3895,0.3884,0.3868,0.3847,0.383,0.3816,0.3809,0.3803,0.3813,0.3803,0.3774,0.3769,0.3765,0.3764,0.3813,0.3813,0.3833,0.3833,0.3834]}]]